Location: McFarlands Corners
(41.4117°N, 81.3382°W)
Time: 05:54:28
(UTC+00:00)

Tiros 1 - Pass Details

Date: 23 February 2026
Orbit: 618 x 649 km, 48.4° (Epoch: 5 March)

Event Time Altitude Azimuth Distance (km) Brightness Sun altitude
Rises 18:23:15 0° 293° (WNW) 2,896 10.4 37.9°
Reaches altitude 10° 18:25:44 10° 284° (WNW) 1,983 9.8 37.8°
Maximum altitude 18:29:49 33° 221° (SW) 1,042 9.9 37.6°
Drops below altitude 10° 18:33:52 10° 157° (SSE) 1,970 10.4 37.4°
Sets 18:36:19 0° 148° (SSE) 2,872 10.9 37.3°
